Weather History for KSTJ - July, 2013

Change the Weather History Date:

Saturday, July 13, 2013

  Actual Average Record
Temperature  
Mean Temperature 79 °F 77 °F  
Max Temperature 87 °F 87 °F 107 °F (1954)
Min Temperature 70 °F 67 °F 47 °F (1975)
Degree Days  
Heating Degree Days 0 0  
Month to date heating degree days 0 0  
Since 1 June heating degree days 15 8  
Since 1 July heating degree days 0 0  
Cooling Degree Days 14 12  
Month to date cooling degree days 159 154  
Year to date cooling degree days 560 534  
Since 1 June cooling degree days 434 421  
Growing Degree Days 28 (Base 50)    
Moisture  
Dew Point 63 °F    
Average Humidity 61    
Maximum Humidity 66    
Minimum Humidity 55    
Precipitation  
Precipitation T in 0.18 in 3.36 in (1915)
Month to date precipitation 0.07 1.97  
Year to date precipitation 16.21 19.10  
Sea Level Pressure  
Sea Level Pressure 29.98 in    
Wind  
Wind Speed 8 mph (SE)    
Max Wind Speed 16 mph    
Max Gust Speed 22 mph    
Visibility 10 miles    
Events Rain    
T = Trace of Precipitation, MM = Missing Value Source: NWS Daily Summary

Daily Weather History Graph

Daily Weather History Graph

Search for Another Location

Airport or City:

Trip Planner

Search our weather history database for the weather conditions in past years. The results will help you decide how hot, cold, wet, or windy it might be!

Date:

Astronomy

Jul. 13, 2013 Rise Set
Actual Time 6:02 AM CDT 8:47 PM CDT
Civil Twilight 5:30 AM CDT 9:19 PM CDT
Nautical Twilight 4:51 AM CDT 9:59 PM CDT
Astronomical Twilight 4:05 AM CDT 10:44 PM CDT
Moon 11:19 AM CDT (7/13) 11:29 PM CDT (7/13)
Length of Visible Light 15h 48m
Length of Day
14h 44m
Waxing Crescent, 26% of the Moon is Illuminated
Jul 13
Waxing Crescent
Jul 15
First Quarter
Jul 22
Full
Jul 29
Last Quarter
Aug 6
New

Hourly Weather History & Observations

Time (CDT) Temp. Heat Index Dew Point Humidity Pressure Visibility Wind Dir Wind Speed Gust Speed Precip Events Conditions
12:53 AM 75.0 °F - 60.1 °F 60% 29.98 in 10.0 mi SE 6.9 mph - N/A   Clear
1:53 AM 73.9 °F - 59.0 °F 59% 29.99 in 10.0 mi SE 5.8 mph - N/A   Clear
2:53 AM 73.0 °F - 59.0 °F 61% 29.99 in 10.0 mi SE 8.1 mph - N/A   Clear
3:53 AM 72.0 °F - 57.9 °F 61% 29.99 in 10.0 mi SSE 6.9 mph - N/A   Clear
4:53 AM 71.1 °F - 57.9 °F 63% 29.99 in 10.0 mi SSE 4.6 mph - N/A   Clear
5:53 AM 71.1 °F - 57.9 °F 63% 29.99 in 10.0 mi SE 8.1 mph - N/A   Clear
6:53 AM 71.1 °F - 59.0 °F 66% 30.00 in 10.0 mi SSE 6.9 mph - N/A   Clear
7:53 AM 73.9 °F - 59.0 °F 59% 30.01 in 10.0 mi South 9.2 mph - N/A   Clear
8:53 AM 75.9 °F - 59.0 °F 56% 30.01 in 10.0 mi South 9.2 mph - N/A   Clear
9:53 AM 79.0 °F - 62.1 °F 56% 30.01 in 10.0 mi SSE 8.1 mph - N/A   Clear
10:53 AM 80.1 °F 81.7 °F 64.0 °F 58% 30.00 in 10.0 mi SSE 10.4 mph - N/A   Clear
11:53 AM 82.0 °F 84.1 °F 66.0 °F 58% 30.00 in 10.0 mi SE 10.4 mph - N/A   Partly Cloudy
12:53 PM 84.9 °F 87.6 °F 66.9 °F 55% 29.99 in 10.0 mi SSE 6.9 mph - N/A   Clear
1:53 PM 84.9 °F 88.8 °F 69.1 °F 59% 29.99 in 10.0 mi SE 5.8 mph - N/A   Clear
2:53 PM 84.9 °F 88.8 °F 69.1 °F 59% 29.98 in 10.0 mi SE 9.2 mph - N/A   Clear
3:53 PM 84.9 °F 88.8 °F 69.1 °F 59% 29.96 in 10.0 mi SE 9.2 mph - N/A   Partly Cloudy
4:53 PM 84.0 °F 87.8 °F 69.1 °F 61% 29.95 in 10.0 mi SE 9.2 mph - N/A   Clear
5:53 PM 82.9 °F 85.4 °F 66.9 °F 58% 29.95 in 10.0 mi SE 12.7 mph - N/A   Clear
6:53 PM 82.0 °F 84.5 °F 66.9 °F 60% 29.94 in 10.0 mi SE 10.4 mph - N/A   Clear
7:53 PM 81.0 °F 82.7 °F 64.9 °F 58% 29.96 in 10.0 mi SE 8.1 mph - N/A   Clear
8:53 PM 78.1 °F - 64.9 °F 64% 29.96 in 10.0 mi SE 5.8 mph - N/A   Clear
9:53 PM 78.1 °F - 63.0 °F 60% 29.98 in 10.0 mi ESE 9.2 mph - N/A   Clear
10:53 PM 77.0 °F - 62.1 °F 60% 30.00 in 10.0 mi ESE 9.2 mph - N/A   Clear
11:53 PM 73.9 °F - 62.1 °F 66% 30.00 in 10.0 mi SSE 8.1 mph - 0.00 in Rain Light Rain